Regional Weather Roundup
Issued by NWS Mobile, AL

Home | Current Version | Previous Version | Text Only | Print | Product List | Glossary On
Versions: 1 2 3 4 5 6 7 8 9 10 11 12 13 14 15 16 17 18 19 20 21 22 23 24 25 26 27 28
000
ASUS44 KMOB 300312
RWRMOB
REGIONAL WEATHER ROUNDUP
NATIONAL WEATHER SERVICE MOBILE AL
1000 PM CDT FRI APR 29 2016

NOTE: "FAIR" INDICATES FEW OR NO CLOUDS BELOW 12,000 FEET WITH NO
      SIGNIFICANT WEATHER AND/OR OBSTRUCTIONS TO VISIBILITY.

  * THESE STATIONS ARE PART OF THE UNIVERSITY OF SOUTH ALABAMA
    MESONET AND ARE NOT UNDER NWS OR FAA QUALITY CONTROL.

ALZ061>064-300400-
COASTAL ALABAMA

CITY           SKY/WX    TMP DP  RH WIND       PRES   REMARKS
MOBILE REG APT PTCLDY    73  73 100 SE5       29.94R
BROOKLEY FIELD PTCLDY    75  74  96 E8        29.94S
USA CAMPUS*    NOT AVBL
DOG RIVER*     NOT AVBL


CITY           SKY/WX    TMP DP  RH WIND       PRES   REMARKS
MOUNT VERNON*  NOT AVBL
SARALAND*      NOT AVBL
BAY MINETTE*   NOT AVBL
LOXLEY*        NOT AVBL
ROBERTSDALE*   NOT AVBL
FAIRHOPE*      NOT AVBL
ELBERTA*       NOT AVBL
FOLEY*         NOT AVBL
GRAND BAY*     NOT AVBL
DAUPHIN ISLND* NOT AVBL
BON SCOUR NWR* NOT AVBL
GULF SHORES    CLEAR     73  73 100 E12       29.93S

$$

ALZ051>060-300400-
INTERIOR SOUTHWEST AND SOUTH CENTRAL ALABAMA

CITY           SKY/WX    TMP DP  RH WIND       PRES   REMARKS
GREENVILLE     MOCLDY    72  60  66 NE16G35   30.01R
EVERGREEN      PTCLDY    69  64  84 CALM      29.97R
CASTLEBERRY*   NOT AVBL
ATMORE*        NOT AVBL
DIXIE*         NOT AVBL
ANDALUSIA/OPP  CLEAR     76  63  64 CALM      29.97R
ANDALUSIA*     NOT AVBL
FLORALA APT    PTCLDY    68  64  87 CALM      29.98R
FLORALA*       NOT AVBL

$$

FLZ001>006-300400-
WESTERN FLORIDA PANHANDLE

CITY           SKY/WX    TMP DP  RH WIND       PRES   REMARKS
PENSACOLA      PTCLDY    76  72  87 SE6       29.93S
NAS PENSACOLA  MOCLDY    75  73  93 SE8       29.92F
MILTON         CLOUDY    70  70 100 CALM      29.95R
WHTNG S FIELD  CLOUDY    73  72  96 CALM      29.95R


CITY           SKY/WX    TMP DP  RH WIND       PRES   REMARKS
WALNUT HILL*   NOT AVBL
JAY*           NOT AVBL
DUKE FIELD     MOCLDY    72  71  96 SE3       29.94S
CRESTVIEW      CLOUDY    70  68  93 CALM      29.97R
VALPARAISO     PTCLDY    75  73  93 SE6       29.94S
DESTIN         CLEAR     77  76  96 SE6       29.95R

$$

MSZ076-079-300400-
INTERIOR SOUTHEAST MISSISSIPPI

CITY           SKY/WX    TMP DP  RH WIND       PRES   REMARKS
LEAKESVILLE*   NOT AVBL
AGRICOLA*      NOT AVBL

$$

MARINE OBSERVATIONS

STATION/POSITION TIME  TEMP    WIND        PRES    WAVE
                       AIR SEA DIR/SP/G            HT/PER
                 (UTC) (F)     (DEG/KT/KT) (MB)    (FT/S)
PASCAGOULA       0200   76                 1012.6R
PETIT BOIS ISLND 0200   79                 1013.4R
GRAND BAY        0100   77     150/ 12     1014.0R
E DAUPHIN ISLAND 0200   76     120/ 11/ 12 1013.0R
USCG MOBILE BAY  0200   76 76              1014.0R
STATE DOCKS      0200   77 73              1013.5R
WEEKS BAY        0100   76                   N/A
FORT MORGAN      0200   75                 1012.8R
12 S ORANGE BCH  0250   75 75  120/ 10/ 10 1012.4R   2/ 6
PENSACOLA BAY    0200   81 69              1013.9R
64 S DAUPHIN ISL 0200   75 74  130/ 10/ 12 1012.1R

$$

SELECTED LOCATIONS ACROSS THE REGION

CITY           SKY/WX    TMP DP  RH WIND       PRES   REMARKS
NEW ORLEANS    CLOUDY    78  71  79 SE12      29.86R
GULFPORT       CLOUDY    76  73  91 SE13      29.90R
PASCAGOULA AP  CLOUDY    75  73  93 SE6       29.92S
PASCAGOULA*    NOT AVBL
HATTIESBURG    PTCLDY    73  66  78 SE6       29.92R
LAUREL         CLOUDY    72  63  73 SE8       29.92R
MERIDIAN       MOCLDY    70  63  78 E8        29.93S
JACKSON        CLOUDY    77  66  68 SE13G21   29.87R
MONTGOMERY     LGT RAIN  68  63  84 N10       30.02F
TROY           MOCLDY    78  66  66 W7        29.99R
KINSTON*       NOT AVBL
GENEVA*        NOT AVBL
ASHFORD*       NOT AVBL
DOTHAN         CLOUDY    76  65  68 SW8       30.00R
PANAMA CITY    PTCLDY    73  71  93 CALM      29.96R

$$





USA.gov is the U.S. government's official web portal to all federal, state and local government web resources and services.